Weather History for Puebla, Pue., Mexico

Change the Weather History Date:

Friday, August 9, 2013

  Actual Average Record
Temperature  
Mean Temperature 64 °F -  
Max Temperature 76 °F 70 °F - ()
Min Temperature 51 °F 51 °F - ()
Degree Days  
Heating Degree Days 2    
Growing Degree Days 14 (Base 50)    
Moisture  
Dew Point 51 °F    
Average Humidity 70    
Maximum Humidity 94    
Minimum Humidity 25    
Precipitation  
Precipitation 0.16 in - - ()
Sea Level Pressure  
Sea Level Pressure 30.17 in    
Wind  
Wind Speed 3 mph ()    
Max Wind Speed 20 mph    
Max Gust Speed 20 mph    
Visibility 5.7 miles    
Events Rain , Thunderstorm    
T = Trace of Precipitation, MM = Missing Value Source: Averaged Metar Reports

Daily Weather History Graph

Daily Weather History Graph

Search for Another Location

Airport:

Trip Planner

Search our weather history database for the weather conditions in past years. The results will help you decide how hot, cold, wet, or windy it might be!

Date:

Astronomy

Aug. 09, 2013 Rise Set
Actual Time 7:12 AM CDT 8:03 PM CDT
Civil Twilight 6:49 AM CDT 8:26 PM CDT
Nautical Twilight 6:22 AM CDT 8:53 PM CDT
Astronomical Twilight 5:54 AM CDT 9:21 PM CDT
Moon 9:28 AM CDT (8/9) 9:49 PM CDT (8/9)
Length of Visible Light 13h 37m
Length of Day
12h 51m
Waxing Crescent, 8% of the Moon is Illuminated
Aug 9
Waxing Crescent
Aug 14
First Quarter
Aug 20
Full
Aug 28
Last Quarter
Sep 5
New

Hourly Weather History & Observations

Time (CDT) Temp. Dew Point Humidity Pressure Visibility Wind Dir Wind Speed Gust Speed Precip Events Conditions
12:45 AM 60 °F 53 °F 72% 29.75 in 3 mi Calm Calm - - Rain Light Rain
12:48 AM 55.4 °F 53.6 °F 94% 30.35 in 8.0 mi Calm Calm - N/A   Scattered Clouds
1:45 AM 55.4 °F 51.8 °F 88% 30.33 in 8.0 mi NE 3.5 mph - N/A   Scattered Clouds
3:45 AM 59 °F 54 °F 79% 29.80 in 3 mi Calm Calm - -   Mostly Cloudy
5:50 AM 51.8 °F 50.0 °F 94% 30.29 in 6.0 mi Calm Calm - N/A   Mostly Cloudy
6:45 AM 56 °F 52 °F 83% 29.85 in 3 mi Calm Calm - -   Scattered Clouds
6:46 AM 51.8 °F 50.0 °F 94% 30.30 in 6.0 mi NNW 3.5 mph - N/A   Mostly Cloudy
7:46 AM 51.8 °F 50.0 °F 94% 30.32 in 6.0 mi North 3.5 mph - N/A   Scattered Clouds
8:44 AM 55.4 °F 50.0 °F 82% 30.33 in 6.0 mi North 8.1 mph - N/A   Clear
9:41 AM 60.8 °F 51.8 °F 72% 30.34 in 5.0 mi NNW 3.5 mph - N/A   Clear
9:50 AM 63 °F 47 °F 45% 29.90 in 3 mi WSW 2.2 mph - -   Haze
10:46 AM 64.4 °F 50.0 °F 59% 30.34 in 5.0 mi Calm Calm - N/A   Clear
11:48 AM 68.0 °F 48.2 °F 49% 30.34 in 5.0 mi Calm Calm - N/A   Clear
12:50 PM 72 °F 44 °F 25% 29.87 in 3 mi North 4.5 mph - -   Haze
12:52 PM 69.8 °F 51.8 °F 53% 30.32 in 5.0 mi Calm Calm - N/A   Partly Cloudy
1:46 PM 71.6 °F 48.2 °F 43% 30.30 in 6.0 mi SE 4.6 mph - N/A   Partly Cloudy
2:45 PM 73.4 °F 51.8 °F 47% 30.28 in 6.0 mi SE 6.9 mph - N/A   Scattered Clouds
3:48 PM 73.4 °F 51.8 °F 47% 30.24 in 6.0 mi SSE 8.1 mph 19.6 mph N/A   Scattered Clouds
3:50 PM 67 °F 55 °F 57% 29.87 in 3 mi SSW 2.2 mph - -   Partly Cloudy
4:49 PM 64.4 °F 46.4 °F 52% 30.26 in 6.0 mi NE 19.6 mph - N/A Thunderstorm Thunderstorm
5:12 PM 57.2 °F 51.8 °F 82% 30.25 in 6.0 mi NNE 11.5 mph - N/A Rain , Thunderstorm Light Thunderstorms and Rain
5:47 PM 59.0 °F 53.6 °F 82% 30.24 in 6.0 mi North 5.8 mph - N/A Rain Light Rain
6:46 PM 62.6 °F 53.6 °F 72% 30.24 in 7.0 mi Calm Calm - N/A   Overcast
6:50 PM 64 °F 48 °F 45% 29.69 in 12 mi North 2.2 mph - -   Partly Cloudy
7:48 PM 59.0 °F 55.4 °F 88% 30.25 in 7.0 mi North 4.6 mph - N/A   Overcast
8:44 PM 60.8 °F 55.4 °F 82% 30.28 in 7.0 mi NNW 4.6 mph - N/A   Mostly Cloudy
9:50 PM 62 °F 51 °F 58% 29.74 in 3 mi Calm Calm - -   Mostly Cloudy
9:54 PM 59.0 °F 55.4 °F 88% 30.31 in 7.0 mi North 4.6 mph - N/A   Mostly Cloudy
10:48 PM 57.2 °F 51.8 °F 82% 30.34 in 7.0 mi North 4.6 mph - N/A   Mostly Cloudy
11:42 PM 55.4 °F 51.8 °F 88% 30.36 in 7.0 mi North 4.6 mph - N/A   Mostly Cloudy